Regional Weather Roundup
Issued by NWS Charleston, SC

Current Version | Previous Version | Graphics & Text | Print | Product List | Glossary On
Versions: 1 2 3 4 5 6 7 8 9 10 11 12 13 14 15 16 17 18 19 20 21 22 23 24 25 26 27 28 29 30 31 32 33 34 35 36 37 38 39 40 41 42 43 44 45 46 47 48 49 50
000 ASUS42 KCHS 252111 RWRCHS REGIONAL WEATHER ROUNDUP NATIONAL WEATHER SERVICE CHARLESTON SC 400 PM EST SAT FEB 25 2017 NOTE: "FAIR" INDICATES FEW OR NO CLOUDS BELOW 12,000 FEET WITH NO SIGNIFICANT WEATHER AND/OR OBSTRUCTIONS TO VISIBILITY. NOT ALL STATIONS ARE QUALITY CONTROLLED. USE DATA WITH CAUTION... ESPECIALLY DEWPOINT OBSERVATIONS. SCZ027-030-031-034>040-042>050-252200- ...SOUTHEAST SOUTH CAROLINA... CITY SKY/WX TMP DP RH WIND PRES REMARKS N CHARLESTON MOSUNNY 79 54 41 W18G26 29.73S WATERFRONT PRK N/A 71 63 75 SW15 29.72S MOUNT PLEASANT FAIR 73 63 68 S10G16 29.73S JOHNS ISLAND FAIR 73 63 68 S14 29.75S PINOPOLIS N/A N/A N/A N/A W14 29.64F MONCKS CORNER FAIR 77 52 41 SW13G20 29.72S SUMMERVILLE FAIR 77 54 44 SW13G20 29.74S BEAUFORT MCAS MOSUNNY 79 58 48 SW20 29.76S BEAUFORT ARPT FAIR 77 59 53 W16 29.76S HILTON HEAD IS MOSUNNY 77 59 53 W125 29.78S WALTERBORO PTCLDY 77 55 47 SW13 29.75S ALLENDALE FAIR 79 46 31 SW8G17 29.73S ...SOUTHERN MIDLANDS AND PEE DEE... CITY SKY/WX TMP DP RH WIND PRES REMARKS GEORGETOWN MOCLDY 77 54 44 W9 29.71S KINGSTREE FAIR 77 54 44 SW16G23 29.69F ORANGEBURG MOSUNNY 78 48 34 W21G26 29.71F BARNWELL FAIR 79 39 24 SW20G26 29.73S AIKEN FAIR 73 27 17 W23G30 29.77S MANNING FAIR 75 55 50 MISG 29.70F COLUMBIA MOSUNNY 78 30 17 W24G36 29.70R SUMTER MOSUNNY 79 51 38 SW18G28 29.66F FLORENCE MOSUNNY 79 55 43 W23G31 29.65F MYRTLE BEACH PTSUNNY 72 61 68 S15 29.70R N MYRTLE BEACH MOSUNNY 66 60 81 SW21G30 29.68F $$ GAZ063-065-086>088-099>101-113>116-118-119-134>141-150-252200- ...SOUTHEAST GEORGIA... CITY SKY/WX TMP DP RH WIND PRES REMARKS SAVANNAH ARPT PTSUNNY 78 56 46 W16 29.78S HUNTER AAF SUNNY 80 64 58 SW15 29.76S FORT STEWART SUNNY 79 57 46 SW17G26 29.77S STATESBORO SUNNY 80 50 35 W16G23 29.77S SYLVANIA CLEAR N/A N/A N/A W8G18 29.77S CLAXTON FAIR 78 53 41 SW10G17 29.79S ...CSRA...CENTRAL AND FAR SOUTHEAST GEORGIA... CITY SKY/WX TMP DP RH WIND PRES REMARKS THOMSON SUNNY 74 29 18 W12G24 29.83R AUGUSTA-BUSH SUNNY 79 24 13 W20G25 29.74R AUGUSTA-DANIEL SUNNY 76 21 12 W12G22 29.76S SWAINSBORO FAIR 77 32 19 W14G20 29.80R VIDALIA SUNNY 79 41 25 W13G21 29.80R EASTMAN FAIR N/A N/A N/A W10 29.86R HAZLEHURST FAIR 79 40 24 W10G17 29.81S ALMA MOSUNNY 78 51 38 W15G23 29.82S WAYCROSS PTSUNNY 80 62 54 NW13G20 29.82S JESUP MOCLDY 77 55 47 NW13G18 29.81S BAXLEY FAIR 79 54 41 W12G18 29.81S BRUNSWICK MOSUNNY 79 63 57 W9 29.82S SAINT SIMONS SUNNY 79 57 46 W13G22 29.81F $$ SCZ027-028-034-036>038-045-046-048>050-GAZ119-141-252200- ...LAKE AND SUPPLEMENTAL COASTAL OBSERVATIONS... STATION/POSITION TIME TEMP WIND PRES WAVE SWELL AIR SEA DIR/SP/G HT/PER HT/PER/DIR (UTC) (F) (DEG/KT/KT) (MB) (FT/S) (FT/S/D) WINYAH BAY 1945 76 210/ 13 1005.0 LAKE MURRAY 2020 73 240/ 18/ 25 1005.1 ACE BASIN NERRS 1945 78 240/ 8 1007.0 FORT PULASKI 2048 76 63 270/ 8/ 14 1008.5F SAPELO ISLAND 2000 76 260/ 13 1009.0 $$ ANZ835-935-AMZ111-154-330-350-352-354-370-450-454-472-252200- ...C-MAN AND BUOY OBSERVATIONS... STATION/POSITION TIME TEMP WIND PRES WAVE SWELL AIR SEA DIR/SP/G HT/PER HT/PER/DIR (UTC) (F) (DEG/KT/KT) (MB) (FT/S) (FT/S/D) BUOY 41004 1950 70 71 210/ 17/ 21 1007.2 6/10 5/110/10 BUOY 41008 1950 66 63 200/ 12/ 14 1009.2 4/10 3/ 70/10 FOLLY BEACH CMAN 2000 65 220/ 14/ 16 1008.0F CAPERS NEARSHORE 2008 63 61 220/ 16/ 21 1006.7F FRIPP NEARSHORE 2008 65 63 220/ 14/ 17 1007.9F STATION/POSITION TIME TEMP WIND PRES WAVE SWELL AIR SEA DIR/SP/G HT/PER HT/PER/DIR (UTC) (F) (DEG/KT/KT) (MB) (FT/S) (FT/S/D) 5E ST. MARYS GA 2030 67 N/A 4/10 2/ 90/11 FRYING PAN BUOY 2050 72 72 210/ 21/ 25 1006.0F 6/10 5/120/10 BUOY 41025 2050 72 76 220/ 19/ 23 1004.8F 7/11 7/130/11 CAPE LOOKOUT NC 2100 71 200/ 16/ 21 1004.5F BUOY 41002 1950 71 71 250/ 12/ 14 1009.3 7/10 7/110/10 BUOY 41010 NOT AVBL ST AUGUSTINE FL 2100 80 68 260/ 9/ 13 1011.0F $$

USA.gov is the U.S. government's official web portal to all federal, state and local government web resources and services.